M I D A S
Marine Information and Data Acquisition System
Tripno 2175 of the Zeeleeuw from 2011-07-06 06:55:43 to 2011-07-06 15:21:16
Back to CruiseResearch ActivitiesStationsMapUnderway DataData graphs

EquipmentUnitsComments
TimeDGPSUTC
LatitudeDGPSDM.mWGS84
LongitudeDGPSDM.mWGS84
SpeedMeteo Stationm/sRelative wind speed
DirectionMeteo StationdegRelative wind direction
TemperatureMeteo Stationdeg CelciusAir temperature
PressureMeteo StationPaAtmospheric pressure
HumidityMeteo Station%Relative humidity
Missing or incorrect values are displayed as -999
Metereological data collected by the RV Zeeleeuw from 2011-07-06 06:51:35 to 2011-07-06 16:11:52
                                                                                    Next 1000 lines
Time Latitude Longitude Speed Direction Temperature Pressure Humidity
2011-07-06 06:51:44 51°13.637 2°56.02 0.2 10 16.1 100680 46
2011-07-06 06:51:49 51°13.636 2°56.02 0.1 18 16.1 100680 46
2011-07-06 06:51:54 51°13.636 2°56.02 -999 32 16.1 100680 46
2011-07-06 06:51:59 51°13.636 2°56.02 -999 55 16.1 100680 46
2011-07-06 06:52:04 51°13.636 2°56.02 -999 23 16.1 100680 46
2011-07-06 06:52:09 51°13.635 2°56.019 5.1 38 16.1 100680 46
2011-07-06 06:52:15 51°13.636 2°56.019 5 36 16.2 100680 46
2011-07-06 06:52:20 51°13.636 2°56.017 4.5 35 16.2 100680 46
2011-07-06 06:52:25 51°13.637 2°56.014 3.5 36 16.2 100690 44
2011-07-06 06:52:30 51°13.638 2°56.011 3.6 42 16.2 100690 44
2011-07-06 06:52:35 51°13.639 2°56.007 3.8 40 16.2 100690 46
2011-07-06 06:52:40 51°13.64 2°56.003 2.7 31 16.2 100690 46
2011-07-06 06:52:45 51°13.641 2°55.998 3.7 32 16.2 100680 45
2011-07-06 06:52:50 51°13.642 2°55.993 3.6 39 16.2 100680 45
2011-07-06 06:52:56 51°13.644 2°55.987 3.5 43 16.2 100680 47
2011-07-06 06:53:01 51°13.645 2°55.982 5.4 43 16.2 100680 47
2011-07-06 06:53:06 51°13.647 2°55.975 5.2 33 16.2 100690 47
2011-07-06 06:53:11 51°13.648 2°55.969 4.6 31 16.2 100690 47
2011-07-06 06:53:16 51°13.65 2°55.962 3.9 34 16.2 100680 47
2011-07-06 06:53:21 51°13.652 2°55.955 4.4 59 16.2 100680 47
2011-07-06 06:53:26 51°13.654 2°55.947 4.4 27 16.2 100690 46
2011-07-06 06:53:31 51°13.656 2°55.94 4 51 16.2 100690 46
2011-07-06 06:53:36 51°13.658 2°55.932 6.5 31 16.2 100680 45
2011-07-06 06:53:41 51°13.66 2°55.924 7.2 55 16.2 100680 45
2011-07-06 06:53:46 51°13.662 2°55.916 6.1 41 16.2 100680 44
2011-07-06 06:53:51 51°13.664 2°55.908 6.5 44 16.2 100680 44
2011-07-06 06:53:56 51°13.666 2°55.901 4.2 15 16.2 100680 45
2011-07-06 06:54:01 51°13.668 2°55.893 2.8 28 16.2 100680 45
2011-07-06 06:54:06 51°13.67 2°55.885 5.1 40 16.2 100680 45
2011-07-06 06:54:11 51°13.672 2°55.877 5.2 35 16.2 100680 45
2011-07-06 06:54:16 51°13.674 2°55.869 6.4 27 16.2 100680 45
2011-07-06 06:54:21 51°13.675 2°55.86 8.4 32 16.2 100680 45
2011-07-06 06:54:26 51°13.677 2°55.853 7.6 35 16.2 100680 45
2011-07-06 06:54:31 51°13.678 2°55.845 6.8 28 16.2 100680 45
2011-07-06 06:54:36 51°13.68 2°55.838 6 29 16.2 100680 46
2011-07-06 06:54:41 51°13.681 2°55.831 6 42 16.2 100680 46
2011-07-06 06:54:46 51°13.683 2°55.824 5.9 21 16.2 100680 46
2011-07-06 06:54:51 51°13.684 2°55.817 5 43 16.2 100680 46
2011-07-06 06:54:56 51°13.685 2°55.81 4.2 34 16.2 100680 44
2011-07-06 06:55:00 51°13.685 2°55.805 5.3 34 16.2 100680 44
2011-07-06 06:55:06 51°13.686 2°55.798 4.4 40 16.2 100680 43
2011-07-06 06:55:11 51°13.687 2°55.792 5.3 33 16.2 100680 43
2011-07-06 06:55:16 51°13.688 2°55.787 6 36 16.2 100680 45
2011-07-06 06:55:20 51°13.689 2°55.784 3.9 32 16.2 100680 45
2011-07-06 06:55:25 51°13.689 2°55.782 3.1 43 16.2 100680 46
2011-07-06 06:55:30 51°13.69 2°55.781 1.2 36 16.2 100680 46
2011-07-06 06:55:35 51°13.691 2°55.781 0.6 27 16.3 100680 45
2011-07-06 06:55:40 51°13.692 2°55.783 0.2 35 16.3 100680 45
2011-07-06 06:55:44 51°13.694 2°55.784 0.1 33 16.3 100680 46
2011-07-06 06:55:49 51°13.695 2°55.787 0.2 52 16.3 100680 46
2011-07-06 06:55:54 51°13.697 2°55.79 0.3 27 16.3 100680 46
2011-07-06 06:55:59 51°13.699 2°55.792 1.2 51 16.3 100680 46
2011-07-06 06:56:04 51°13.701 2°55.794 1.6 21 16.3 100690 45
2011-07-06 06:56:08 51°13.703 2°55.795 3.6 60 16.3 100690 45
2011-07-06 06:56:14 51°13.704 2°55.796 1.9 22 16.3 100690 45
2011-07-06 06:56:19 51°13.704 2°55.795 5.6 51 16.3 100690 45
2011-07-06 06:56:23 51°13.703 2°55.795 5.4 21 16.3 100690 45
2011-07-06 06:56:28 51°13.703 2°55.794 4.1 52 16.3 100690 45
2011-07-06 06:56:33 51°13.702 2°55.793 3.9 25 16.3 100690 46
2011-07-06 06:56:38 51°13.701 2°55.793 3 53 16.3 100690 46
2011-07-06 06:56:43 51°13.702 2°55.793 6.1 28 16.3 100700 45
2011-07-06 06:56:48 51°13.703 2°55.793 7.4 59 16.3 100700 45
2011-07-06 06:56:52 51°13.705 2°55.794 7.5 23 16.4 100700 44
2011-07-06 06:56:57 51°13.709 2°55.795 4.7 309 16.4 100700 44
2011-07-06 06:57:02 51°13.713 2°55.795 6.8 30 16.4 100690 45
2011-07-06 06:57:08 51°13.72 2°55.794 3.5 53 16.4 100690 45
2011-07-06 06:57:12 51°13.724 2°55.792 5.6 256 16.4 100700 45
2011-07-06 06:57:17 51°13.729 2°55.788 7.2 308 16.4 100700 45
2011-07-06 06:57:22 51°13.735 2°55.782 5.6 253 16.4 100700 45
2011-07-06 06:57:28 51°13.741 2°55.772 6.8 305 16.4 100700 45
2011-07-06 06:57:32 51°13.745 2°55.766 5 269 16.4 100690 45
2011-07-06 06:57:38 51°13.75 2°55.757 5 301 16.4 100690 45
2011-07-06 06:57:42 51°13.754 2°55.75 4.4 316 16.4 100690 43
2011-07-06 06:57:48 51°13.759 2°55.741 7.7 309 16.4 100690 43
2011-07-06 06:57:52 51°13.762 2°55.734 6.1 20 16.4 100700 44
2011-07-06 06:57:57 51°13.767 2°55.726 6.6 304 16.4 100700 44
2011-07-06 06:58:02 51°13.772 2°55.718 7.1 244 16.4 100700 45
2011-07-06 06:58:07 51°13.776 2°55.71 5.2 308 16.4 100700 45
2011-07-06 06:58:12 51°13.781 2°55.702 4.9 21 16.4 100690 45
2011-07-06 06:58:17 51°13.786 2°55.695 3 304 16.4 100690 45
2011-07-06 06:58:23 51°13.791 2°55.687 3 264 16.5 100720 45
2011-07-06 06:58:28 51°13.796 2°55.68 5.1 302 16.5 100720 45
2011-07-06 06:58:32 51°13.8 2°55.675 3.7 266 16.5 100700 44
2011-07-06 06:58:37 51°13.805 2°55.669 3.1 310 16.5 100700 44
2011-07-06 06:58:42 51°13.809 2°55.664 2.8 250 16.5 100690 44
2011-07-06 06:58:48 51°13.815 2°55.657 1.6 308 16.5 100690 44
2011-07-06 06:58:52 51°13.82 2°55.652 1.4 26 16.5 100690 45
2011-07-06 06:58:57 51°13.824 2°55.647 2.7 303 16.5 100690 45
2011-07-06 06:59:02 51°13.83 2°55.641 1.5 23 16.5 100690 45
2011-07-06 06:59:08 51°13.836 2°55.634 2.5 302 16.5 100690 45
2011-07-06 06:59:12 51°13.84 2°55.63 1.6 22 16.5 100690 44
2011-07-06 06:59:18 51°13.848 2°55.623 1.7 307 16.5 100690 44
2011-07-06 06:59:22 51°13.852 2°55.619 0.3 21 16.5 100690 44
2011-07-06 06:59:28 51°13.859 2°55.612 4.1 302 16.5 100690 44
2011-07-06 06:59:32 51°13.864 2°55.608 5.1 258 16.5 100690 45
2011-07-06 06:59:37 51°13.87 2°55.602 4.6 302 16.5 100690 45
2011-07-06 06:59:42 51°13.876 2°55.596 6 257 16.5 100680 45
2011-07-06 06:59:48 51°13.884 2°55.589 3.7 63 16.5 100680 45
2011-07-06 06:59:52 51°13.889 2°55.584 2.4 18 16.6 100690 44
2011-07-06 06:59:57 51°13.895 2°55.578 0.4 302 16.6 100690 44
2011-07-06 07:00:02 51°13.901 2°55.572 0.2 26 16.6 100680 44
2011-07-06 07:00:08 51°13.909 2°55.566 0.1 304 16.6 100680 44
2011-07-06 07:00:12 51°13.915 2°55.562 2.7 18 16.6 100690 44
2011-07-06 07:00:17 51°13.921 2°55.556 2.3 309 16.6 100690 44
2011-07-06 07:00:22 51°13.927 2°55.55 0.2 251 16.6 100690 43
2011-07-06 07:00:28 51°13.935 2°55.542 6.1 304 16.6 100690 43
2011-07-06 07:00:32 51°13.941 2°55.537 4.9 260 16.6 100690 45
2011-07-06 07:00:37 51°13.947 2°55.531 6.7 307 16.6 100690 45
2011-07-06 07:00:42 51°13.954 2°55.524 5.9 257 16.6 100690 45
2011-07-06 07:00:47 51°13.961 2°55.518 5.2 298 16.6 100690 45
2011-07-06 07:00:52 51°13.968 2°55.512 4.1 249 16.6 100690 44
2011-07-06 07:00:57 51°13.975 2°55.506 1.1 308 16.6 100690 44
2011-07-06 07:01:03 51°13.984 2°55.499 0.2 262 16.6 100680 44
2011-07-06 07:01:08 51°13.992 2°55.493 0.3 61 16.6 100680 44
2011-07-06 07:01:12 51°13.998 2°55.489 0.5 22 16.6 100690 45
2011-07-06 07:01:18 51°14.007 2°55.483 0.1 301 16.6 100690 45
2011-07-06 07:01:23 51°14.015 2°55.478 0.1 249 16.6 100690 44
2011-07-06 07:01:28 51°14.024 2°55.472 -999 304 16.6 100690 44
2011-07-06 07:01:32 51°14.03 2°55.468 -999 25 16.6 100690 44
2011-07-06 07:01:38 51°14.04 2°55.461 -999 305 16.6 100690 44
2011-07-06 07:01:43 51°14.048 2°55.455 2 26 16.6 100680 44
2011-07-06 07:01:48 51°14.056 2°55.45 2.2 303 16.6 100680 44
2011-07-06 07:01:52 51°14.063 2°55.446 2.6 27 16.6 100680 44
2011-07-06 07:01:57 51°14.072 2°55.44 2.2 300 16.6 100680 44
2011-07-06 07:02:03 51°14.082 2°55.433 4.4 254 16.6 100690 44
2011-07-06 07:02:08 51°14.091 2°55.427 3.3 305 16.6 100690 44
2011-07-06 07:02:12 51°14.098 2°55.423 1.5 26 16.6 100680 44
2011-07-06 07:02:17 51°14.107 2°55.417 0.9 300 16.6 100680 44
2011-07-06 07:02:22 51°14.116 2°55.41 1.7 260 16.7 100690 45
2011-07-06 07:02:28 51°14.127 2°55.402 0.2 309 16.7 100690 45
2011-07-06 07:02:32 51°14.135 2°55.397 0.1 256 16.7 100690 44
2011-07-06 07:02:37 51°14.144 2°55.389 4 304 16.7 100690 44
2011-07-06 07:02:42 51°14.154 2°55.383 0.2 25 16.7 100680 44
2011-07-06 07:02:48 51°14.166 2°55.374 0.3 306 16.7 100680 44
2011-07-06 07:02:52 51°14.174 2°55.369 0.1 317 16.7 100680 44
2011-07-06 07:02:57 51°14.184 2°55.361 0.1 305 16.7 100680 44
2011-07-06 07:03:02 51°14.194 2°55.353 -999 24 16.7 100690 42
2011-07-06 07:03:07 51°14.204 2°55.345 -999 304 16.7 100690 42
2011-07-06 07:03:12 51°14.214 2°55.337 -999 25 16.7 100690 44
2011-07-06 07:03:17 51°14.224 2°55.328 5.3 302 16.7 100690 44
2011-07-06 07:03:23 51°14.237 2°55.318 6.3 22 16.7 100680 44
2011-07-06 07:03:28 51°14.247 2°55.31 5.2 308 16.7 100680 44
2011-07-06 07:03:32 51°14.255 2°55.303 6.3 21 16.7 100680 44
2011-07-06 07:03:38 51°14.268 2°55.293 4.9 305 16.7 100680 44
2011-07-06 07:03:43 51°14.278 2°55.284 4.9 26 16.7 100670 45
2011-07-06 07:03:48 51°14.289 2°55.274 6.6 308 16.7 100670 45
2011-07-06 07:03:53 51°14.3 2°55.265 6.2 249 16.7 100680 44
2011-07-06 07:03:58 51°14.31 2°55.255 7.4 304 16.7 100680 44
2011-07-06 07:04:03 51°14.321 2°55.244 8.6 245 16.7 100680 44
2011-07-06 07:04:08 51°14.332 2°55.234 7.8 307 16.7 100680 44
2011-07-06 07:04:12 51°14.341 2°55.226 6.4 24 16.7 100690 44
2011-07-06 07:04:18 51°14.355 2°55.212 7.1 301 16.7 100690 44
2011-07-06 07:04:23 51°14.366 2°55.202 6.3 23 16.7 100680 43
2011-07-06 07:04:28 51°14.377 2°55.192 6.1 304 16.7 100680 43
2011-07-06 07:04:32 51°14.387 2°55.183 6.9 255 16.7 100670 44
2011-07-06 07:04:38 51°14.401 2°55.17 6.1 301 16.7 100670 44
2011-07-06 07:04:43 51°14.413 2°55.158 6.9 22 16.7 100670 44
2011-07-06 07:04:48 51°14.426 2°55.146 8 303 16.7 100670 44
2011-07-06 07:04:53 51°14.438 2°55.135 4.2 24 16.7 100670 45
2011-07-06 07:04:58 51°14.451 2°55.122 9.9 309 16.7 100670 45
2011-07-06 07:05:02 51°14.461 2°55.112 8.8 248 16.8 100670 44
2011-07-06 07:05:08 51°14.478 2°55.096 10.7 310 16.8 100670 44
2011-07-06 07:05:13 51°14.492 2°55.083 9.1 21 16.7 100670 44
2011-07-06 07:05:18 51°14.506 2°55.068 8.9 306 16.7 100670 44
2011-07-06 07:05:23 51°14.52 2°55.053 4.5 248 16.7 100660 45
2011-07-06 07:05:28 51°14.535 2°55.038 5 305 16.7 100660 45
2011-07-06 07:05:33 51°14.549 2°55.022 10.2 249 16.8 100660 45
2011-07-06 07:05:38 51°14.564 2°55.005 11.1 308 16.8 100660 45
2011-07-06 07:05:43 51°14.578 2°54.989 8.2 249 16.8 100660 44
2011-07-06 07:05:48 51°14.593 2°54.972 8.1 305 16.8 100660 44
2011-07-06 07:05:53 51°14.607 2°54.954 9.8 24 16.7 100660 45
2011-07-06 07:05:58 51°14.622 2°54.936 4.4 303 16.7 100660 45
2011-07-06 07:06:03 51°14.637 2°54.92 9.9 20 16.7 100660 44
2011-07-06 07:06:08 51°14.651 2°54.903 5.2 303 16.7 100660 44
2011-07-06 07:06:13 51°14.666 2°54.887 9.6 20 16.7 100660 45
2011-07-06 07:06:17 51°14.678 2°54.873 8.9 305 16.7 100660 45
2011-07-06 07:06:23 51°14.696 2°54.853 9.7 249 16.8 100660 45
2011-07-06 07:06:28 51°14.711 2°54.836 4.6 306 16.8 100660 45
2011-07-06 07:06:33 51°14.725 2°54.819 9.6 246 16.8 100660 46
2011-07-06 07:06:37 51°14.737 2°54.804 4.6 307 16.8 100660 46
2011-07-06 07:06:43 51°14.754 2°54.783 5.2 247 16.7 100660 46
2011-07-06 07:06:48 51°14.769 2°54.765 10.3 305 16.7 100660 46
2011-07-06 07:06:53 51°14.783 2°54.747 10.1 246 16.7 100660 46
2011-07-06 07:06:57 51°14.795 2°54.733 9.5 304 16.7 100660 46
2011-07-06 07:07:03 51°14.812 2°54.711 10.6 22 16.7 100660 46
2011-07-06 07:07:08 51°14.827 2°54.693 10.2 301 16.7 100660 46
2011-07-06 07:07:13 51°14.841 2°54.675 5.3 242 16.7 100660 46
2011-07-06 07:07:18 51°14.856 2°54.658 11.7 302 16.7 100660 46
2011-07-06 07:07:23 51°14.87 2°54.64 5.4 25 16.7 100660 46
2011-07-06 07:07:28 51°14.885 2°54.622 4.4 304 16.7 100660 46
2011-07-06 07:07:33 51°14.899 2°54.605 4.8 247 16.7 100660 46
2011-07-06 07:07:38 51°14.914 2°54.587 9.5 306 16.7 100660 46
2011-07-06 07:07:42 51°14.926 2°54.574 9.2 244 16.7 100650 45
2011-07-06 07:07:48 51°14.944 2°54.554 8.7 308 16.7 100650 45
2011-07-06 07:07:53 51°14.959 2°54.539 9.8 24 16.6 100650 45
2011-07-06 07:07:58 51°14.975 2°54.524 10.6 303 16.6 100650 45
2011-07-06 07:08:03 51°14.99 2°54.509 10.1 22 16.7 100660 45
2011-07-06 07:08:08 51°15.005 2°54.494 10.6 307 16.7 100660 45
2011-07-06 07:08:13 51°15.021 2°54.479 9 246 16.6 100650 45
2011-07-06 07:08:18 51°15.036 2°54.463 11.3 306 16.6 100650 45
2011-07-06 07:08:23 51°15.051 2°54.448 10.8 248 16.7 100650 45
2011-07-06 07:08:28 51°15.066 2°54.432 12.7 309 16.7 100650 45
2011-07-06 07:08:33 51°15.081 2°54.417 12.7 22 16.6 100650 46
2011-07-06 07:08:37 51°15.093 2°54.404 9 302 16.6 100650 46
2011-07-06 07:08:43 51°15.11 2°54.384 10.1 26 16.6 100660 46
2011-07-06 07:08:48 51°15.124 2°54.367 10.1 303 16.6 100660 46
2011-07-06 07:08:53 51°15.138 2°54.349 10.2 26 16.6 100660 45
2011-07-06 07:08:57 51°15.15 2°54.335 11.9 307 16.6 100660 45
2011-07-06 07:09:03 51°15.166 2°54.314 5.8 245 16.6 100650 46
2011-07-06 07:09:08 51°15.18 2°54.296 10 304 16.6 100650 46
2011-07-06 07:09:13 51°15.194 2°54.278 10.4 22 16.6 100640 46
2011-07-06 07:09:18 51°15.208 2°54.26 12.1 303 16.6 100640 46
2011-07-06 07:09:23 51°15.222 2°54.242 10.6 25 16.6 100640 45
2011-07-06 07:09:28 51°15.235 2°54.222 5.4 304 16.6 100640 45
2011-07-06 07:09:33 51°15.248 2°54.204 10.7 24 16.5 100650 46
2011-07-06 07:09:38 51°15.262 2°54.185 5.7 304 16.5 100650 46
2011-07-06 07:09:43 51°15.276 2°54.167 11.3 22 16.5 100650 45
2011-07-06 07:09:48 51°15.29 2°54.149 10 307 16.5 100650 45
2011-07-06 07:09:53 51°15.304 2°54.131 9.5 22 16.5 100640 46
2011-07-06 07:09:58 51°15.317 2°54.113 11.6 308 16.5 100640 46
2011-07-06 07:10:02 51°15.329 2°54.099 5.4 22 16.5 100640 45
2011-07-06 07:10:08 51°15.345 2°54.078 10.7 302 16.5 100640 45
2011-07-06 07:10:13 51°15.36 2°54.06 11.3 22 16.5 100640 46
2011-07-06 07:10:18 51°15.374 2°54.042 10.6 301 16.5 100640 46
2011-07-06 07:10:23 51°15.388 2°54.024 10.2 244 16.5 100650 46
2011-07-06 07:10:28 51°15.402 2°54.007 10.5 303 16.5 100650 46
2011-07-06 07:10:33 51°15.416 2°53.989 10.2 20 16.5 100640 45
2011-07-06 07:10:37 51°15.428 2°53.976 10.3 303 16.5 100640 45
2011-07-06 07:10:43 51°15.445 2°53.955 9.4 247 16.5 100650 46
2011-07-06 07:10:48 51°15.46 2°53.939 10.9 308 16.5 100650 46
2011-07-06 07:10:53 51°15.474 2°53.922 9 23 16.5 100650 46
2011-07-06 07:10:57 51°15.486 2°53.909 12.1 308 16.5 100650 46
2011-07-06 07:11:03 51°15.503 2°53.889 9.9 25 16.5 100650 44
2011-07-06 07:11:08 51°15.518 2°53.873 9.5 310 16.5 100650 44
2011-07-06 07:11:13 51°15.532 2°53.857 4.9 25 16.6 100650 47
2011-07-06 07:11:17 51°15.543 2°53.844 11.5 305 16.6 100650 47
2011-07-06 07:11:23 51°15.561 2°53.824 9.1 21 16.6 100650 46
2011-07-06 07:11:28 51°15.575 2°53.807 9.4 304 16.6 100650 46
2011-07-06 07:11:33 51°15.589 2°53.789 9.5 22 16.6 100650 47
2011-07-06 07:11:37 51°15.6 2°53.775 10.5 303 16.6 100650 47
2011-07-06 07:11:43 51°15.617 2°53.755 10.9 24 16.6 100640 46
2011-07-06 07:11:48 51°15.63 2°53.738 10.5 308 16.6 100640 46
2011-07-06 07:11:53 51°15.644 2°53.72 10.9 24 16.6 100650 46
2011-07-06 07:11:57 51°15.655 2°53.706 10.8 306 16.6 100650 46
2011-07-06 07:12:03 51°15.672 2°53.685 11.3 246 16.6 100650 47
2011-07-06 07:12:08 51°15.686 2°53.668 9.8 302 16.6 100650 47
2011-07-06 07:12:13 51°15.7 2°53.651 9 21 16.6 100660 46
2011-07-06 07:12:18 51°15.714 2°53.634 10.1 307 16.6 100660 46
2011-07-06 07:12:23 51°15.728 2°53.618 9.1 246 16.5 100640 47
2011-07-06 07:12:28 51°15.742 2°53.601 9.1 304 16.5 100640 47
2011-07-06 07:12:33 51°15.756 2°53.584 10.1 246 16.5 100640 47
2011-07-06 07:12:38 51°15.77 2°53.567 5.2 304 16.5 100640 47
2011-07-06 07:12:43 51°15.784 2°53.55 9.5 243 16.5 100650 46
2011-07-06 07:12:48 51°15.798 2°53.532 10.7 306 16.5 100650 46
2011-07-06 07:12:53 51°15.812 2°53.515 11.3 246 16.5 100650 47
2011-07-06 07:12:57 51°15.823 2°53.501 10.1 307 16.5 100650 47
2011-07-06 07:13:03 51°15.84 2°53.48 5.2 20 16.5 100650 47
2011-07-06 07:13:08 51°15.854 2°53.462 10.9 308 16.5 100650 47
2011-07-06 07:13:13 51°15.868 2°53.445 11 22 16.4 100640 47
2011-07-06 07:13:17 51°15.879 2°53.431 8.2 310 16.4 100640 47
2011-07-06 07:13:23 51°15.897 2°53.411 10.7 20 16.5 100650 46
2011-07-06 07:13:28 51°15.911 2°53.394 9.3 303 16.5 100650 46
2011-07-06 07:13:33 51°15.925 2°53.377 8.5 243 16.5 100650 46
2011-07-06 07:13:37 51°15.937 2°53.364 9.5 307 16.5 100650 46
2011-07-06 07:13:43 51°15.954 2°53.343 9.3 20 16.4 100650 45
2011-07-06 07:13:48 51°15.968 2°53.325 9.2 307 16.4 100650 45
2011-07-06 07:13:53 51°15.982 2°53.308 8.6 25 16.5 100650 47
2011-07-06 07:13:58 51°15.996 2°53.29 10.4 307 16.5 100650 47
2011-07-06 07:14:03 51°16.01 2°53.273 9.6 23 16.5 100660 47
2011-07-06 07:14:08 51°16.024 2°53.256 8.1 309 16.5 100660 47
2011-07-06 07:14:13 51°16.039 2°53.239 9 20 16.5 100640 47
2011-07-06 07:14:18 51°16.053 2°53.222 8.8 305 16.5 100640 47
2011-07-06 07:14:22 51°16.065 2°53.209 9.4 20 16.5 100650 47
2011-07-06 07:14:28 51°16.082 2°53.189 9.8 309 16.5 100650 47
2011-07-06 07:14:33 51°16.097 2°53.174 8.3 243 16.5 100650 47
2011-07-06 07:14:38 51°16.113 2°53.16 9.3 305 16.5 100650 47
2011-07-06 07:14:43 51°16.129 2°53.147 8.8 251 16.5 100640 47
2011-07-06 07:14:48 51°16.145 2°53.136 6.9 279 16.5 100640 47
2011-07-06 07:14:53 51°16.162 2°53.125 7.8 247 16.5 100640 47
2011-07-06 07:14:57 51°16.175 2°53.116 8.3 303 16.5 100640 47
2011-07-06 07:15:03 51°16.196 2°53.105 7.9 25 16.5 100640 46
2011-07-06 07:15:08 51°16.213 2°53.096 6.2 303 16.5 100640 46
2011-07-06 07:15:13 51°16.23 2°53.088 7.9 248 16.4 100650 46
2011-07-06 07:15:17 51°16.244 2°53.082 6.9 305 16.4 100650 46
2011-07-06 07:15:23 51°16.265 2°53.073 8.8 255 16.4 100660 47
2011-07-06 07:15:28 51°16.282 2°53.064 9.3 308 16.4 100660 47
2011-07-06 07:15:33 51°16.299 2°53.056 9.6 254 16.4 100650 47
2011-07-06 07:15:37 51°16.313 2°53.05 9.1 302 16.4 100650 47
2011-07-06 07:15:43 51°16.334 2°53.041 9.4 252 16.5 100650 46
2011-07-06 07:15:48 51°16.351 2°53.032 8.7 303 16.5 100650 46
2011-07-06 07:15:53 51°16.368 2°53.024 8.2 251 16.5 100650 47
2011-07-06 07:15:58 51°16.385 2°53.016 4 308 16.5 100650 47
2011-07-06 07:16:02 51°16.399 2°53.009 8 251 16.4 100660 46
2011-07-06 07:16:08 51°16.42 2°53 3.6 304 16.4 100660 46
2011-07-06 07:16:13 51°16.437 2°52.991 9.4 23 16.4 100660 47
2011-07-06 07:16:18 51°16.454 2°52.983 4.1 309 16.4 100660 47
2011-07-06 07:16:23 51°16.471 2°52.975 6.6 19 16.5 100660 46
2011-07-06 07:16:28 51°16.488 2°52.967 7.9 308 16.5 100660 46
2011-07-06 07:16:33 51°16.505 2°52.959 8.1 22 16.5 100660 47
2011-07-06 07:16:37 51°16.519 2°52.952 8.7 302 16.5 100660 47
2011-07-06 07:16:43 51°16.539 2°52.942 8.3 248 16.4 100650 47
2011-07-06 07:16:48 51°16.556 2°52.933 8.3 302 16.4 100650 47
2011-07-06 07:16:53 51°16.573 2°52.925 7.5 244 16.4 100650 47
2011-07-06 07:16:58 51°16.59 2°52.916 3.8 302 16.4 100650 47
2011-07-06 07:17:03 51°16.607 2°52.908 8 20 16.4 100670 47
2011-07-06 07:17:08 51°16.624 2°52.9 8.3 306 16.4 100670 47
2011-07-06 07:17:13 51°16.641 2°52.892 8.3 249 16.4 100660 46
2011-07-06 07:17:17 51°16.655 2°52.885 7.2 303 16.4 100660 46
2011-07-06 07:17:23 51°16.675 2°52.875 7.4 24 16.4 100650 46
2011-07-06 07:17:28 51°16.692 2°52.866 9.1 304 16.4 100650 46
2011-07-06 07:17:33 51°16.709 2°52.858 4.7 247 16.4 100660 47
2011-07-06 07:17:37 51°16.723 2°52.851 4.1 305 16.4 100660 47
2011-07-06 07:17:43 51°16.743 2°52.84 4.6 248 16.4 100660 46
2011-07-06 07:17:48 51°16.76 2°52.832 8.1 306 16.4 100660 46
2011-07-06 07:17:53 51°16.777 2°52.822 9.1 254 16.4 100660 47
2011-07-06 07:17:57 51°16.791 2°52.815 9.7 306 16.4 100660 47
2011-07-06 07:18:03 51°16.811 2°52.804 4.9 253 16.4 100640 46
2011-07-06 07:18:08 51°16.828 2°52.794 9.3 300 16.4 100640 46
2011-07-06 07:18:13 51°16.844 2°52.784 4.2 247 16.4 100650 46
2011-07-06 07:18:18 51°16.861 2°52.774 7.5 307 16.4 100650 46
2011-07-06 07:18:23 51°16.878 2°52.764 7.2 252 16.4 100650 47
2011-07-06 07:18:28 51°16.894 2°52.754 9.3 302 16.4 100650 47
2011-07-06 07:18:33 51°16.911 2°52.743 10.1 253 16.4 100650 46
2011-07-06 07:18:38 51°16.927 2°52.733 8 310 16.4 100650 46
2011-07-06 07:18:42 51°16.941 2°52.725 10.3 20 16.4 100640 46
2011-07-06 07:18:48 51°16.961 2°52.713 4.5 304 16.4 100640 46
2011-07-06 07:18:53 51°16.978 2°52.704 8.3 251 16.4 100650 46
2011-07-06 07:18:58 51°16.995 2°52.693 9.2 307 16.4 100650 46
2011-07-06 07:19:03 51°17.012 2°52.684 4.9 252 16.4 100660 46
2011-07-06 07:19:08 51°17.029 2°52.674 9.2 309 16.4 100660 46
2011-07-06 07:19:13 51°17.046 2°52.664 8.9 251 16.5 100650 46
2011-07-06 07:19:17 51°17.059 2°52.656 5 304 16.5 100650 46
2011-07-06 07:19:23 51°17.08 2°52.644 4.3 250 16.5 100650 47
2011-07-06 07:19:28 51°17.097 2°52.634 9.3 302 16.5 100650 47
2011-07-06 07:19:33 51°17.113 2°52.623 4.4 252 16.5 100650 47
2011-07-06 07:19:37 51°17.127 2°52.616 4.6 303 16.5 100650 47
2011-07-06 07:19:43 51°17.147 2°52.604 9 251 16.4 100650 46
2011-07-06 07:19:48 51°17.164 2°52.594 8.3 302 16.4 100650 46
2011-07-06 07:19:53 51°17.181 2°52.585 8.9 252 16.4 100650 46
2011-07-06 07:19:57 51°17.194 2°52.577 9.8 309 16.4 100650 46
2011-07-06 07:20:03 51°17.215 2°52.565 4.8 253 16.4 100650 46
2011-07-06 07:20:08 51°17.232 2°52.557 8.5 308 16.4 100650 46
2011-07-06 07:20:13 51°17.249 2°52.547 7 251 16.4 100660 47
2011-07-06 07:20:17 51°17.262 2°52.541 8.5 304 16.4 100660 47
2011-07-06 07:20:23 51°17.283 2°52.53 8 250 16.4 100650 46
2011-07-06 07:20:28 51°17.3 2°52.521 8.7 303 16.4 100650 46
2011-07-06 07:20:33 51°17.317 2°52.512 9.1 252 16.4 100660 46
2011-07-06 07:20:38 51°17.334 2°52.502 7.8 304 16.4 100660 46
2011-07-06 07:20:43 51°17.351 2°52.493 9.5 254 16.4 100650 46
2011-07-06 07:20:48 51°17.368 2°52.483 4.4 304 16.4 100650 46
2011-07-06 07:20:53 51°17.385 2°52.473 7.6 246 16.3 100660 45
2011-07-06 07:20:58 51°17.401 2°52.463 8 303 16.3 100660 45
2011-07-06 07:21:03 51°17.418 2°52.454 4.2 252 16.4 100650 46
2011-07-06 07:21:08 51°17.435 2°52.444 4.5 307 16.4 100650 46
2011-07-06 07:21:13 51°17.452 2°52.435 8.6 249 16.4 100650 46
2011-07-06 07:21:18 51°17.469 2°52.428 10.9 305 16.4 100650 46
2011-07-06 07:21:23 51°17.487 2°52.42 8.5 254 16.4 100650 47
2011-07-06 07:21:28 51°17.504 2°52.414 10.4 307 16.4 100650 47
2011-07-06 07:21:33 51°17.522 2°52.409 7.9 255 16.4 100650 47
2011-07-06 07:21:38 51°17.539 2°52.403 7.1 301 16.4 100650 47
2011-07-06 07:21:43 51°17.557 2°52.397 5.7 248 16.4 100650 44
2011-07-06 07:21:48 51°17.574 2°52.391 8 280 16.4 100650 44
2011-07-06 07:21:53 51°17.592 2°52.386 8.1 253 16.4 100660 46
2011-07-06 07:21:57 51°17.607 2°52.383 8.5 307 16.4 100660 46
2011-07-06 07:22:03 51°17.628 2°52.378 7.4 260 16.4 100660 46
2011-07-06 07:22:08 51°17.645 2°52.373 4.4 308 16.4 100660 46
2011-07-06 07:22:13 51°17.663 2°52.37 9.6 258 16.4 100670 47
2011-07-06 07:22:17 51°17.678 2°52.367 7.8 304 16.4 100670 47
2011-07-06 07:22:23 51°17.699 2°52.362 6.9 261 16.4 100660 47
2011-07-06 07:22:28 51°17.717 2°52.358 6.4 308 16.4 100660 47
2011-07-06 07:22:33 51°17.735 2°52.354 5.7 262 16.4 100660 46
2011-07-06 07:22:38 51°17.753 2°52.35 7.8 307 16.4 100660 46
2011-07-06 07:22:42 51°17.767 2°52.347 4.6 260 16.4 100650 47
2011-07-06 07:22:48 51°17.788 2°52.344 5.3 310 16.4 100650 47
2011-07-06 07:22:53 51°17.806 2°52.341 6.7 262 16.4 100670 47
2011-07-06 07:22:58 51°17.823 2°52.337 6.3 301 16.4 100670 47
2011-07-06 07:23:03 51°17.841 2°52.336 6.6 257 16.4 100670 47
2011-07-06 07:23:08 51°17.859 2°52.333 7.2 302 16.4 100670 47
2011-07-06 07:23:13 51°17.877 2°52.332 7 253 16.4 100660 46
2011-07-06 07:23:17 51°17.891 2°52.329 7.5 303 16.4 100660 46
2011-07-06 07:23:23 51°17.912 2°52.327 11 258 16.4 100660 47
2011-07-06 07:23:28 51°17.93 2°52.325 8.1 302 16.4 100660 47
2011-07-06 07:23:33 51°17.948 2°52.323 8.8 252 16.4 100660 47
2011-07-06 07:23:38 51°17.966 2°52.322 10.3 304 16.4 100660 47
2011-07-06 07:23:43 51°17.984 2°52.318 10.6 253 16.4 100660 47
2011-07-06 07:23:48 51°18.001 2°52.317 8 282 16.4 100660 47
2011-07-06 07:23:53 51°18.019 2°52.315 8.2 257 16.4 100660 47
2011-07-06 07:23:57 51°18.034 2°52.314 7.6 300 16.4 100660 47
2011-07-06 07:24:03 51°18.055 2°52.312 6.6 259 16.4 100660 47
2011-07-06 07:24:08 51°18.073 2°52.312 8.2 307 16.4 100660 47
2011-07-06 07:24:13 51°18.091 2°52.311 7.6 257 16.4 100650 47
2011-07-06 07:24:17 51°18.105 2°52.311 6.3 310 16.4 100650 47
2011-07-06 07:24:23 51°18.126 2°52.312 5.4 259 16.4 100670 45
2011-07-06 07:24:28 51°18.144 2°52.312 6.3 300 16.4 100670 45
2011-07-06 07:24:33 51°18.162 2°52.314 6.1 258 16.3 100670 45
2011-07-06 07:24:37 51°18.176 2°52.314 5.6 307 16.3 100670 45
2011-07-06 07:24:43 51°18.197 2°52.315 5.8 260 16.3 100660 46
2011-07-06 07:24:48 51°18.215 2°52.316 6.4 300 16.3 100660 46
2011-07-06 07:24:53 51°18.233 2°52.317 5.9 259 16.3 100660 46
2011-07-06 07:24:57 51°18.247 2°52.317 6.5 302 16.3 100660 46
2011-07-06 07:25:03 51°18.269 2°52.316 6.6 259 16.3 100660 45
2011-07-06 07:25:08 51°18.287 2°52.317 6.7 303 16.3 100660 45
2011-07-06 07:25:13 51°18.305 2°52.315 6.1 260 16.3 100660 47
2011-07-06 07:25:18 51°18.322 2°52.315 5.4 308 16.3 100660 47
2011-07-06 07:25:23 51°18.341 2°52.314 8.3 259 16.3 100660 47
2011-07-06 07:25:28 51°18.358 2°52.313 8 308 16.3 100660 47
2011-07-06 07:25:33 51°18.376 2°52.313 7.6 257 16.3 100650 45
2011-07-06 07:25:38 51°18.394 2°52.314 7.3 303 16.3 100650 45
2011-07-06 07:25:43 51°18.412 2°52.313 6.6 259 16.3 100660 47
2011-07-06 07:25:48 51°18.43 2°52.313 6.5 304 16.3 100660 47
2011-07-06 07:25:53 51°18.448 2°52.311 9 256 16.3 100660 46
2011-07-06 07:25:58 51°18.466 2°52.312 9 304 16.3 100660 46
2011-07-06 07:26:03 51°18.484 2°52.31 7.2 259 16.3 100650 46
2011-07-06 07:26:08 51°18.502 2°52.31 7.9 303 16.3 100650 46
2011-07-06 07:26:13 51°18.52 2°52.307 8.4 260 16.3 100660 47
2011-07-06 07:26:18 51°18.538 2°52.308 6.2 308 16.3 100660 47
2011-07-06 07:26:23 51°18.556 2°52.305 5.6 261 16.3 100650 46
2011-07-06 07:26:28 51°18.573 2°52.306 6.5 308 16.3 100650 46
2011-07-06 07:26:33 51°18.591 2°52.304 6 257 16.4 100660 47
2011-07-06 07:26:37 51°18.606 2°52.304 6.5 304 16.4 100660 47
2011-07-06 07:26:43 51°18.627 2°52.302 7.2 255 16.3 100670 46
2011-07-06 07:26:48 51°18.645 2°52.301 7.8 308 16.3 100670 46
2011-07-06 07:26:53 51°18.663 2°52.3 6.8 259 16.3 100650 46
2011-07-06 07:26:58 51°18.681 2°52.299 4.4 309 16.3 100650 46
2011-07-06 07:27:03 51°18.7 2°52.298 5 262 16.3 100660 45
2011-07-06 07:27:08 51°18.718 2°52.297 5.5 308 16.3 100660 45
2011-07-06 07:27:13 51°18.736 2°52.297 6.8 258 16.3 100650 47
2011-07-06 07:27:18 51°18.754 2°52.296 6.1 300 16.3 100650 47
2011-07-06 07:27:22 51°18.768 2°52.296 7.3 257 16.3 100650 47
2011-07-06 07:27:28 51°18.79 2°52.294 5.1 307 16.3 100650 47
2011-07-06 07:27:33 51°18.807 2°52.295 4.2 261 16.3 100660 46
2011-07-06 07:27:38 51°18.825 2°52.294 4 307 16.3 100660 46
2011-07-06 07:27:43 51°18.843 2°52.294 4 265 16.3 100650 46
2011-07-06 07:27:48 51°18.861 2°52.294 3.8 283 16.3 100650 46
2011-07-06 07:27:53 51°18.879 2°52.296 2.9 264 16.3 100650 46
2011-07-06 07:27:57 51°18.893 2°52.296 2.7 308 16.3 100650 46
2011-07-06 07:28:03 51°18.915 2°52.3 3.9 267 16.3 100650 45
2011-07-06 07:28:08 51°18.933 2°52.3 3 304 16.3 100650 45
2011-07-06 07:28:13 51°18.951 2°52.302 3.4 267 16.2 100660 45
2011-07-06 07:28:18 51°18.969 2°52.304 3.7 305 16.2 100660 45
2011-07-06 07:28:23 51°18.987 2°52.305 3.2 260 16.2 100660 45
2011-07-06 07:28:28 51°19.005 2°52.308 3.5 303 16.2 100660 45
2011-07-06 07:28:33 51°19.023 2°52.311 3.1 264 16.2 100660 47
2011-07-06 07:28:38 51°19.041 2°52.314 5 304 16.2 100660 47
2011-07-06 07:28:43 51°19.059 2°52.316 4.1 260 16.2 100660 47
2011-07-06 07:28:48 51°19.077 2°52.32 4.1 306 16.2 100660 47
2011-07-06 07:28:53 51°19.094 2°52.323 0.3 266 16.2 100660 47
2011-07-06 07:28:57 51°19.109 2°52.326 0.1 305 16.2 100660 47
2011-07-06 07:29:03 51°19.13 2°52.331 0.1 263 16.2 100660 48
2011-07-06 07:29:08 51°19.148 2°52.335 -999 309 16.2 100660 48
2011-07-06 07:29:13 51°19.165 2°52.34 -999 26 16.3 100660 47
2011-07-06 07:29:18 51°19.183 2°52.343 -999 305 16.3 100660 47
2011-07-06 07:29:22 51°19.197 2°52.348 -999 260 16.2 100660 48
2011-07-06 07:29:28 51°19.218 2°52.353 -999 305 16.2 100660 48
2011-07-06 07:29:33 51°19.236 2°52.358 -999 268 16.2 100650 47
2011-07-06 07:29:38 51°19.254 2°52.361 -999 305 16.2 100650 47
2011-07-06 07:29:43 51°19.272 2°52.366 -999 270 16.2 100650 45
2011-07-06 07:29:48 51°19.29 2°52.37 -999 61 16.2 100650 45
2011-07-06 07:29:53 51°19.307 2°52.374 -999 28 16.2 100650 47
2011-07-06 07:29:57 51°19.321 2°52.377 -999 14 16.2 100650 47
2011-07-06 07:30:03 51°19.342 2°52.383 -999 270 16.2 100660 46
2011-07-06 07:30:08 51°19.36 2°52.389 -999 306 16.2 100660 46
2011-07-06 07:30:13 51°19.377 2°52.395 -999 270 16.1 100650 46
2011-07-06 07:30:18 51°19.395 2°52.403 -999 55 16.1 100650 46
2011-07-06 07:30:23 51°19.412 2°52.411 -999 24 16.1 100660 45
2011-07-06 07:30:28 51°19.429 2°52.42 -999 55 16.1 100660 45
2011-07-06 07:30:33 51°19.445 2°52.43 -999 24 16.1 100650 47
2011-07-06 07:30:37 51°19.458 2°52.437 -999 55 16.1 100650 47
2011-07-06 07:30:43 51°19.479 2°52.447 -999 24 16.1 100650 46
2011-07-06 07:30:48 51°19.495 2°52.457 -999 79 16.1 100650 46
2011-07-06 07:30:53 51°19.512 2°52.466 -999 24 16.1 100650 46
2011-07-06 07:30:57 51°19.525 2°52.474 -999 57 16.1 100650 46
2011-07-06 07:31:03 51°19.545 2°52.488 -999 25 16.1 100660 46
2011-07-06 07:31:08 51°19.561 2°52.498 -999 55 16.1 100660 46
2011-07-06 07:31:13 51°19.577 2°52.512 -999 24 16.1 100640 46
2011-07-06 07:31:17 51°19.589 2°52.523 -999 55 16.1 100640 46
2011-07-06 07:31:23 51°19.607 2°52.541 -999 24 16.1 100650 47
2011-07-06 07:31:28 51°19.621 2°52.557 -999 56 16.1 100650 47
2011-07-06 07:31:33 51°19.635 2°52.574 -999 27 16.1 100660 47
2011-07-06 07:31:38 51°19.648 2°52.592 -999 42 16.1 100660 47
2011-07-06 07:31:43 51°19.661 2°52.611 -999 40 16.1 100650 47
2011-07-06 07:31:48 51°19.674 2°52.63 -999 40 16.1 100650 47
2011-07-06 07:31:53 51°19.685 2°52.651 -999 37 16.1 100660 47
2011-07-06 07:31:58 51°19.698 2°52.671 -999 41 16.1 100660 47
2011-07-06 07:32:02 51°19.707 2°52.687 -999 39 16.1 100650 47
2011-07-06 07:32:08 51°19.72 2°52.713 -999 37 16.1 100650 47
2011-07-06 07:32:13 51°19.732 2°52.734 -999 40 16.2 100650 47
2011-07-06 07:32:18 51°19.743 2°52.756 -999 25 16.2 100650 47
2011-07-06 07:32:23 51°19.754 2°52.778 3.3 33 16.2 100650 46
2011-07-06 07:32:28 51°19.765 2°52.799 0.2 34 16.2 100650 46
2011-07-06 07:32:33 51°19.776 2°52.821 0.1 29 16.2 100650 47
2011-07-06 07:32:38 51°19.787 2°52.842 -999 39 16.2 100650 47
2011-07-06 07:32:43 51°19.798 2°52.864 -999 40 16.1 100660 47
2011-07-06 07:32:48 51°19.809 2°52.887 2.6 40 16.1 100660 47
2011-07-06 07:32:53 51°19.821 2°52.907 0.9 37 16.1 100650 47
2011-07-06 07:32:57 51°19.83 2°52.925 0.1 43 16.1 100650 47
2011-07-06 07:33:03 51°19.845 2°52.951 0.1 38 16.1 100650 47
2011-07-06 07:33:08 51°19.856 2°52.973 -999 43 16.1 100650 47
2011-07-06 07:33:13 51°19.868 2°52.995 -999 45 16.1 100650 47
2011-07-06 07:33:17 51°19.878 2°53.012 -999 44 16.1 100650 47
2011-07-06 07:33:23 51°19.892 2°53.038 -999 31 16.1 100650 47
2011-07-06 07:33:28 51°19.904 2°53.059 -999 35 16.1 100650 47
2011-07-06 07:33:33 51°19.916 2°53.081 -999 29 16.1 100650 46
2011-07-06 07:33:37 51°19.925 2°53.098 -999 26 16.1 100650 46
2011-07-06 07:33:43 51°19.94 2°53.123 -999 43 16.1 100650 47
2011-07-06 07:33:48 51°19.951 2°53.145 -999 41 16.1 100650 47
2011-07-06 07:33:53 51°19.963 2°53.166 -999 35 16.1 100650 47
2011-07-06 07:33:58 51°19.976 2°53.188 -999 28 16.1 100650 47
2011-07-06 07:34:02 51°19.984 2°53.206 -999 32 16.1 100650 47
2011-07-06 07:34:08 51°19.999 2°53.232 -999 37 16.1 100650 47
2011-07-06 07:34:13 51°20.011 2°53.254 -999 32 16.1 100650 47
2011-07-06 07:34:18 51°20.024 2°53.275 -999 41 16.1 100650 47
2011-07-06 07:34:23 51°20.036 2°53.296 -999 40 16.1 100650 47
2011-07-06 07:34:28 51°20.05 2°53.315 -999 42 16.1 100650 47
2011-07-06 07:34:33 51°20.063 2°53.335 -999 35 16.1 100650 47
2011-07-06 07:34:37 51°20.074 2°53.35 -999 39 16.1 100650 47
2011-07-06 07:34:43 51°20.09 2°53.373 -999 25 16.1 100650 47
2011-07-06 07:34:48 51°20.104 2°53.39 -999 45 16.1 100650 47
2011-07-06 07:34:53 51°20.117 2°53.409 -999 24 16.1 100650 47
2011-07-06 07:34:58 51°20.131 2°53.426 -999 55 16.1 100650 47
2011-07-06 07:35:03 51°20.144 2°53.445 -999 24 16.1 100660 45
2011-07-06 07:35:08 51°20.157 2°53.462 -999 55 16.1 100660 45
2011-07-06 07:35:13 51°20.17 2°53.48 -999 24 16.1 100650 47
2011-07-06 07:35:17 51°20.181 2°53.495 -999 55 16.1 100650 47
2011-07-06 07:35:23 51°20.197 2°53.516 -999 24 16.1 100650 46
2011-07-06 07:35:28 51°20.21 2°53.535 -999 55 16.1 100650 46
2011-07-06 07:35:33 51°20.224 2°53.552 -999 24 16.1 100660 47
2011-07-06 07:35:37 51°20.235 2°53.567 -999 55 16.1 100660 47
2011-07-06 07:35:43 51°20.252 2°53.586 -999 25 16.1 100660 47
2011-07-06 07:35:48 51°20.265 2°53.605 -999 55 16.1 100660 47
2011-07-06 07:35:53 51°20.28 2°53.62 -999 24 16.1 100650 46
2011-07-06 07:35:57 51°20.291 2°53.635 -999 55 16.1 100650 46
2011-07-06 07:36:03 51°20.309 2°53.654 -999 25 16.1 100650 46
2011-07-06 07:36:08 51°20.322 2°53.671 -999 55 16.1 100650 46
2011-07-06 07:36:13 51°20.337 2°53.686 -999 24 16.1 100650 47
2011-07-06 07:36:18 51°20.351 2°53.703 -999 55 16.1 100650 47
2011-07-06 07:36:23 51°20.365 2°53.718 -999 24 16.1 100650 47
2011-07-06 07:36:28 51°20.379 2°53.736 -999 55 16.1 100650 47
2011-07-06 07:36:33 51°20.393 2°53.753 -999 25 16.1 100650 47
2011-07-06 07:36:38 51°20.406 2°53.771 -999 55 16.1 100650 47
2011-07-06 07:36:42 51°20.416 2°53.785 0.1 20 16.1 100650 47
2011-07-06 07:36:48 51°20.432 2°53.806 0.1 79 16.1 100650 47
2011-07-06 07:36:53 51°20.446 2°53.824 -999 24 16.1 100650 47
2011-07-06 07:36:58 51°20.459 2°53.843 -999 44 16.1 100650 47
2011-07-06 07:37:03 51°20.472 2°53.861 -999 28 16.1 100650 46
2011-07-06 07:37:08 51°20.486 2°53.88 -999 55 16.1 100650 46
2011-07-06 07:37:13 51°20.5 2°53.897 -999 24 16.1 100650 46
2011-07-06 07:37:18 51°20.513 2°53.915 -999 55 16.1 100650 46
2011-07-06 07:37:23 51°20.527 2°53.933 -999 44 16.1 100650 46
2011-07-06 07:37:28 51°20.54 2°53.951 -999 42 16.1 100650 46
2011-07-06 07:37:33 51°20.553 2°53.969 -999 43 16.1 100660 46
2011-07-06 07:37:37 51°20.564 2°53.983 -999 42 16.1 100660 46
2011-07-06 07:37:43 51°20.58 2°54.006 -999 24 16 100650 45
2011-07-06 07:37:48 51°20.594 2°54.022 -999 55 16 100650 45
2011-07-06 07:37:53 51°20.607 2°54.041 0.1 21 16.1 100650 46
2011-07-06 07:37:58 51°20.621 2°54.056 0.1 54 16.1 100650 46
2011-07-06 07:38:03 51°20.634 2°54.074 0.1 24 16.1 100660 46
2011-07-06 07:38:08 51°20.648 2°54.091 -999 55 16.1 100660 46
2011-07-06 07:38:13 51°20.662 2°54.108 -999 24 16.1 100650 46
2011-07-06 07:38:17 51°20.673 2°54.122 -999 55 16.1 100650 46
2011-07-06 07:38:23 51°20.689 2°54.143 -999 24 16.1 100650 47
2011-07-06 07:38:28 51°20.703 2°54.16 -999 35 16.1 100650 47
2011-07-06 07:38:33 51°20.716 2°54.176 -999 24 16.1 100660 46
2011-07-06 07:38:37 51°20.728 2°54.189 -999 55 16.1 100660 46
2011-07-06 07:38:42 51°20.742 2°54.206 -999 24 16.1 100660 47
2011-07-06 07:38:48 51°20.758 2°54.226 -999 45 16.1 100660 47
2011-07-06 07:38:53 51°20.772 2°54.242 -999 25 16.1 100650 47
2011-07-06 07:38:57 51°20.784 2°54.255 -999 55 16.1 100650 47
2011-07-06 07:39:03 51°20.801 2°54.274 -999 25 16.1 100660 48
2011-07-06 07:39:08 51°20.816 2°54.29 0.1 54 16.1 100660 48
2011-07-06 07:39:13 51°20.83 2°54.305 0.1 24 16.1 100660 47
2011-07-06 07:39:17 51°20.841 2°54.318 -999 55 16.1 100660 47
2011-07-06 07:39:23 51°20.858 2°54.338 -999 24 16.1 100660 47
2011-07-06 07:39:28 51°20.872 2°54.354 -999 35 16.1 100660 47
2011-07-06 07:39:33 51°20.886 2°54.372 -999 24 16.1 100660 47
2011-07-06 07:39:38 51°20.899 2°54.389 -999 55 16.1 100660 47
2011-07-06 07:39:43 51°20.913 2°54.408 -999 24 16.2 100660 47
2011-07-06 07:39:48 51°20.926 2°54.426 -999 55 16.2 100660 47
2011-07-06 07:39:53 51°20.941 2°54.443 -999 24 16.2 100660 47
2011-07-06 07:39:57 51°20.952 2°54.457 -999 55 16.2 100660 47
2011-07-06 07:40:03 51°20.969 2°54.478 -999 24 16.2 100660 47
2011-07-06 07:40:08 51°20.983 2°54.496 -999 55 16.2 100660 47
2011-07-06 07:40:13 51°20.997 2°54.513 -999 24 16.2 100660 47
2011-07-06 07:40:17 51°21.008 2°54.527 -999 58 16.2 100660 47
2011-07-06 07:40:23 51°21.025 2°54.547 -999 26 16.2 100660 46
2011-07-06 07:40:28 51°21.039 2°54.566 -999 55 16.2 100660 46
2011-07-06 07:40:33 51°21.053 2°54.583 -999 25 16.2 100660 47
2011-07-06 07:40:37 51°21.064 2°54.597 0.1 54 16.2 100660 47
2011-07-06 07:40:42 51°21.077 2°54.615 0.1 24 16.3 100670 47
2011-07-06 07:40:48 51°21.094 2°54.636 -999 79 16.3 100670 47
2011-07-06 07:40:53 51°21.108 2°54.654 -999 24 16.3 100670 47
2011-07-06 07:40:57 51°21.119 2°54.668 -999 55 16.3 100670 47
2011-07-06 07:41:02 51°21.134 2°54.685 -999 24 16.3 100660 47
2011-07-06 07:41:08 51°21.15 2°54.707 -999 55 16.3 100660 47
2011-07-06 07:41:13 51°21.164 2°54.723 -999 24 16.3 100660 47
2011-07-06 07:41:17 51°21.175 2°54.739 -999 55 16.3 100660 47
2011-07-06 07:41:21 51°21.186 2°54.753 -999 25 16.2 100660 47
2011-07-06 07:41:28 51°21.206 2°54.777 -999 55 16.2 100660 47
2011-07-06 07:41:32 51°21.217 2°54.789 -999 24 16.3 100660 46
2011-07-06 07:41:37 51°21.231 2°54.807 -999 55 16.3 100660 46
2011-07-06 07:41:42 51°21.245 2°54.822 -999 24 16.2 100670 46
2011-07-06 07:41:48 51°21.262 2°54.843 -999 55 16.2 100670 46
2011-07-06 07:41:53 51°21.277 2°54.858 -999 24 16.2 100660 46
2011-07-06 07:41:57 51°21.288 2°54.872 -999 55 16.2 100660 46
2011-07-06 07:42:03 51°21.305 2°54.892 -999 24 16.2 100660 46
2011-07-06 07:42:08 51°21.318 2°54.91 -999 55 16.2 100660 46
2011-07-06 07:42:13 51°21.332 2°54.928 -999 24 16.3 100660 47
2011-07-06 07:42:17 51°21.344 2°54.942 -999 55 16.3 100660 47
2011-07-06 07:42:23 51°21.36 2°54.963 -999 24 16.3 100660 47
2011-07-06 07:42:28 51°21.375 2°54.979 -999 55 16.3 100660 47
2011-07-06 07:42:32 51°21.385 2°54.995 -999 24 16.3 100670 47
2011-07-06 07:42:37 51°21.4 2°55.01 -999 55 16.3 100670 47
2011-07-06 07:42:42 51°21.414 2°55.028 -999 24 16.3 100660 46
2011-07-06 07:42:48 51°21.43 2°55.047 -999 79 16.3 100660 46
2011-07-06 07:42:53 51°21.444 2°55.066 -999 43 16.3 100660 46
2011-07-06 07:42:57 51°21.455 2°55.08 -999 55 16.3 100660 46
2011-07-06 07:43:01 51°21.466 2°55.093 -999 24 16.3 100660 45
2011-07-06 07:43:08 51°21.485 2°55.119 -999 60 16.3 100660 45
2011-07-06 07:43:13 51°21.499 2°55.136 -999 27 16.3 100670 46
2011-07-06 07:43:17 51°21.51 2°55.149 0.1 56 16.3 100670 46
2011-07-06 07:43:21 51°21.52 2°55.165 2.1 25 16.3 100660 46
2011-07-06 07:43:27 51°21.537 2°55.185 0.3 52 16.3 100660 46
2011-07-06 07:43:33 51°21.553 2°55.207 0.1 23 16.2 100660 46
2011-07-06 07:43:37 51°21.564 2°55.221 0.1 55 16.2 100660 46
2011-07-06 07:43:41 51°21.576 2°55.236 -999 24 16.3 100670 47
2011-07-06 07:43:48 51°21.594 2°55.262 -999 55 16.3 100670 47
2011-07-06 07:43:52 51°21.605 2°55.277 -999 24 16.3 100660 46
2011-07-06 07:43:57 51°21.619 2°55.296 -999 55 16.3 100660 46
2011-07-06 07:44:02 51°21.633 2°55.313 -999 24 16.3 100660 46
2011-07-06 07:44:08 51°21.648 2°55.336 -999 55 16.3 100660 46
2011-07-06 07:44:13 51°21.663 2°55.353 -999 24 16.3 100660 45
2011-07-06 07:44:17 51°21.674 2°55.368 -999 55 16.3 100660 45
2011-07-06 07:44:23 51°21.69 2°55.389 0.6 30 16.3 100670 45
2011-07-06 07:44:28 51°21.703 2°55.408 1 58 16.3 100670 45
2011-07-06 07:44:33 51°21.717 2°55.426 0.9 22 16.3 100670 45
2011-07-06 07:44:37 51°21.728 2°55.439 0.2 58 16.3 100670 45
2011-07-06 07:44:43 51°21.745 2°55.461 0.1 22 16.3 100660 45
2011-07-06 07:44:48 51°21.759 2°55.477 0.1 79 16.3 100660 45
2011-07-06 07:44:53 51°21.772 2°55.496 0.1 26 16.3 100660 46
2011-07-06 07:44:57 51°21.784 2°55.509 0.1 41 16.3 100660 46
2011-07-06 07:45:02 51°21.798 2°55.525 0.1 30 16.3 100660 46
2011-07-06 07:45:08 51°21.815 2°55.545 -999 55 16.3 100660 46
2011-07-06 07:45:13 51°21.83 2°55.562 0.1 21 16.4 100660 46
2011-07-06 07:45:17 51°21.841 2°55.575 0.1 44 16.4 100660 46
2011-07-06 07:45:21 51°21.852 2°55.589 0.1 28 16.4 100660 46
2011-07-06 07:45:28 51°21.873 2°55.612 0.1 36 16.4 100660 46
2011-07-06 07:45:33 51°21.887 2°55.628 0.1 24 16.4 100670 46
2011-07-06 07:45:37 51°21.899 2°55.641 -999 55 16.4 100670 46
2011-07-06 07:45:41 51°21.91 2°55.655 -999 24 16.4 100660 45
2011-07-06 07:45:47 51°21.927 2°55.674 -999 79 16.4 100660 45
2011-07-06 07:45:53 51°21.944 2°55.694 -999 24 16.4 100670 46
2011-07-06 07:45:57 51°21.955 2°55.707 -999 54 16.4 100670 46
2011-07-06 07:46:03 51°21.973 2°55.727 1.4 23 16.5 100660 46
2011-07-06 07:46:08 51°21.987 2°55.742 0.1 55 16.5 100660 46
2011-07-06 07:46:12 51°21.998 2°55.756 0.1 24 16.5 100670 46
2011-07-06 07:46:17 51°22.013 2°55.771 -999 55 16.5 100670 46
2011-07-06 07:46:22 51°22.027 2°55.788 -999 24 16.5 100670 46
2011-07-06 07:46:28 51°22.043 2°55.809 -999 55 16.5 100670 46
2011-07-06 07:46:33 51°22.058 2°55.826 -999 24 16.4 100660 46
2011-07-06 07:46:37 51°22.069 2°55.84 -999 55 16.4 100660 46
2011-07-06 07:46:43 51°22.086 2°55.861 -999 24 16.5 100670 46
2011-07-06 07:46:48 51°22.101 2°55.877 -999 55 16.5 100670 46
2011-07-06 07:46:52 51°22.113 2°55.89 -999 24 16.5 100670 45
2011-07-06 07:46:57 51°22.127 2°55.907 -999 55 16.5 100670 45
2011-07-06 07:47:03 51°22.145 2°55.927 -999 24 16.5 100670 45
2011-07-06 07:47:08 51°22.159 2°55.943 -999 55 16.5 100670 45
2011-07-06 07:47:13 51°22.174 2°55.96 -999 24 16.5 100660 45
2011-07-06 07:47:17 51°22.186 2°55.973 -999 55 16.5 100660 45
2011-07-06 07:47:22 51°22.2 2°55.99 -999 24 16.5 100660 45
2011-07-06 07:47:28 51°22.218 2°56.01 -999 54 16.5 100660 45
2011-07-06 07:47:33 51°22.231 2°56.028 -999 24 16.5 100670 45
2011-07-06 07:47:37 51°22.243 2°56.042 -999 55 16.5 100670 45
2011-07-06 07:47:41 51°22.254 2°56.056 -999 24 16.5 100660 45
2011-07-06 07:47:47 51°22.271 2°56.078 -999 78 16.5 100660 45
2011-07-06 07:47:53 51°22.287 2°56.101 -999 24 16.5 100660 45
2011-07-06 07:47:57 51°22.299 2°56.114 -999 55 16.5 100660 45
2011-07-06 07:48:01 51°22.31 2°56.129 -999 24 16.5 100660 45
2011-07-06 07:48:08 51°22.329 2°56.155 -999 55 16.5 100660 45
2011-07-06 07:48:13 51°22.343 2°56.173 -999 24 16.5 100670 45
2011-07-06 07:48:17 51°22.354 2°56.188 -999 55 16.5 100670 45
2011-07-06 07:48:22 51°22.368 2°56.205 -999 24 16.5 100660 44
2011-07-06 07:48:27 51°22.382 2°56.224 -999 55 16.5 100660 44
2011-07-06 07:48:33 51°22.399 2°56.244 -999 24 16.5 100660 45
2011-07-06 07:48:37 51°22.41 2°56.259 -999 55 16.5 100660 45
2011-07-06 07:48:43 51°22.427 2°56.28 -999 25 16.5 100660 45
2011-07-06 07:48:48 51°22.44 2°56.298 -999 79 16.5 100660 45
2011-07-06 07:48:53 51°22.454 2°56.315 -999 24 16.5 100660 45
2011-07-06 07:48:57 51°22.465 2°56.33 -999 55 16.5 100660 45
2011-07-06 07:49:03 51°22.482 2°56.35 -999 44 16.5 100670 45
2011-07-06 07:49:08 51°22.495 2°56.368 -999 55 16.5 100670 45
2011-07-06 07:49:12 51°22.505 2°56.382 -999 24 16.5 100660 44
2011-07-06 07:49:17 51°22.518 2°56.4 -999 55 16.5 100660 44
2011-07-06 07:49:22 51°22.531 2°56.418 -999 24 16.4 100660 45
2011-07-06 07:49:28 51°22.546 2°56.442 -999 55 16.4 100660 45
2011-07-06 07:49:33 51°22.558 2°56.461 -999 24 16.5 100660 45
2011-07-06 07:49:37 51°22.568 2°56.477 0.3 54 16.5 100660 45
2011-07-06 07:49:41 51°22.579 2°56.491 0.1 41 16.5 100670 45
2011-07-06 07:49:48 51°22.596 2°56.519 0.1 38 16.5 100670 45
2011-07-06 07:49:53 51°22.609 2°56.537 0.3 44 16.5 100660 45
2011-07-06 07:49:57 51°22.619 2°56.552 0.1 38 16.5 100660 45
2011-07-06 07:50:01 51°22.629 2°56.568 0.3 39 16.5 100660 45
2011-07-06 07:50:07 51°22.644 2°56.591 0.4 57 16.5 100660 45
2011-07-06 07:50:13 51°22.66 2°56.613 0.7 20 16.5 100660 45
2011-07-06 07:50:17 51°22.671 2°56.628 0.1 55 16.5 100660 45
2011-07-06 07:50:21 51°22.681 2°56.643 0.1 22 16.5 100660 46
2011-07-06 07:50:28 51°22.7 2°56.667 0.2 55 16.5 100660 46
2011-07-06 07:50:33 51°22.713 2°56.688 0.1 24 16.5 100660 45
2011-07-06 07:50:37 51°22.724 2°56.702 0.1 43 16.5 100660 45
2011-07-06 07:50:42 51°22.736 2°56.721 0.5 28 16.5 100660 45
2011-07-06 07:50:48 51°22.752 2°56.743 0.1 58 16.5 100660 45
2011-07-06 07:50:53 51°22.765 2°56.761 0.1 26 16.6 100650 45
2011-07-06 07:50:57 51°22.775 2°56.776 0.3 54 16.6 100650 45
2011-07-06 07:51:03 51°22.791 2°56.798 0.1 24 16.5 100650 44
2011-07-06 07:51:08 51°22.803 2°56.818 0.1 57 16.5 100650 44
2011-07-06 07:51:12 51°22.813 2°56.834 -999 26 16.5 100660 45
2011-07-06 07:51:17 51°22.827 2°56.851 0.1 54 16.5 100660 45
2011-07-06 07:51:23 51°22.842 2°56.873 0.1 24 16.5 100660 45
2011-07-06 07:51:28 51°22.855 2°56.892 0.1 55 16.5 100660 45
2011-07-06 07:51:32 51°22.865 2°56.907 -999 24 16.5 100660 45
2011-07-06 07:51:37 51°22.877 2°56.926 -999 55 16.5 100660 45
2011-07-06 07:51:42 51°22.889 2°56.947 0.1 23 16.5 100660 45
2011-07-06 07:51:48 51°22.903 2°56.97 0.1 41 16.5 100660 45
2011-07-06 07:51:52 51°22.913 2°56.987 0.3 41 16.5 100660 45
2011-07-06 07:51:57 51°22.924 2°57.007 0.1 44 16.5 100660 45
2011-07-06 07:52:02 51°22.936 2°57.027 0.1 31 16.5 100660 45
2011-07-06 07:52:08 51°22.949 2°57.054 -999 41 16.5 100660 45
2011-07-06 07:52:12 51°22.959 2°57.071 -999 40 16.5 100660 46
2011-07-06 07:52:17 51°22.969 2°57.093 0.1 54 16.5 100660 46
2011-07-06 07:52:22 51°22.981 2°57.114 0.1 42 16.5 100650 46
2011-07-06 07:52:27 51°22.992 2°57.135 -999 35 16.5 100650 46
2011-07-06 07:52:33 51°23.006 2°57.16 -999 36 16.5 100650 46
2011-07-06 07:52:37 51°23.014 2°57.177 -999 27 16.5 100650 46
2011-07-06 07:52:42 51°23.025 2°57.197 -999 42 16.5 100660 46
2011-07-06 07:52:47 51°23.037 2°57.217 -999 79 16.5 100660 46
2011-07-06 07:52:53 51°23.052 2°57.241 -999 24 16.5 100660 46
2011-07-06 07:52:57 51°23.062 2°57.256 -999 39 16.5 100660 46
2011-07-06 07:53:02 51°23.075 2°57.276 -999 30 16.5 100660 46
2011-07-06 07:53:07 51°23.088 2°57.295 -999 40 16.5 100660 46
2011-07-06 07:53:12 51°23.101 2°57.315 -999 36 16.5 100650 46
2011-07-06 07:53:17 51°23.114 2°57.334 -999 38 16.5 100650 46
2011-07-06 07:53:22 51°23.127 2°57.354 -999 40 16.6 100660 46
2011-07-06 07:53:27 51°23.14 2°57.373 -999 55 16.6 100660 46
2011-07-06 07:53:33 51°23.155 2°57.396 -999 25 16.6 100660 46
2011-07-06 07:53:37 51°23.165 2°57.411 -999 55 16.6 100660 46
2011-07-06 07:53:42 51°23.178 2°57.429 -999 25 16.6 100660 45
2011-07-06 07:53:48 51°23.193 2°57.451 -999 79 16.6 100660 45
2011-07-06 07:53:53 51°23.206 2°57.468 -999 25 16.6 100660 47
2011-07-06 07:53:57 51°23.217 2°57.483 -999 56 16.6 100660 47
2011-07-06 07:54:02 51°23.23 2°57.501 -999 24 16.6 100660 46
2011-07-06 07:54:08 51°23.246 2°57.522 -999 55 16.6 100660 46
2011-07-06 07:54:13 51°23.258 2°57.54 -999 25 16.6 100660 46
2011-07-06 07:54:17 51°23.268 2°57.555 -999 55 16.6 100660 46
2011-07-06 07:54:22 51°23.281 2°57.574 -999 25 16.6 100660 46
2011-07-06 07:54:28 51°23.297 2°57.595 0.1 50 16.6 100660 46
2011-07-06 07:54:33 51°23.309 2°57.615 0.1 22 16.6 100670 46
2011-07-06 07:54:37 51°23.319 2°57.63 0.1 55 16.6 100670 46
2011-07-06 07:54:42 51°23.331 2°57.65 -999 24 16.6 100660 46
2011-07-06 07:54:47 51°23.344 2°57.669 -999 55 16.6 100660 46
2011-07-06 07:54:53 51°23.359 2°57.692 -999 24 16.6 100660 46
2011-07-06 07:54:57 51°23.369 2°57.708 -999 55 16.6 100660 46
2011-07-06 07:55:02 51°23.382 2°57.726 -999 24 16.5 100660 45
2011-07-06 07:55:07 51°23.394 2°57.745 -999 55 16.5 100660 45
2011-07-06 07:55:12 51°23.407 2°57.764 -999 24 16.5 100660 45
2011-07-06 07:55:17 51°23.419 2°57.783 -999 55 16.5 100660 45
2011-07-06 07:55:22 51°23.433 2°57.8 -999 24 16.5 100650 45
2011-07-06 07:55:27 51°23.445 2°57.82 -999 43 16.5 100650 45
2011-07-06 07:55:32 51°23.458 2°57.839 -999 24 16.5 100660 46
2011-07-06 07:55:37 51°23.47 2°57.859 -999 55 16.5 100660 46
2011-07-06 07:55:42 51°23.483 2°57.878 -999 24 16.5 100650 46
2011-07-06 07:55:47 51°23.496 2°57.897 -999 55 16.5 100650 46
2011-07-06 07:55:53 51°23.511 2°57.92 -999 24 16.5 100660 46
2011-07-06 07:55:57 51°23.522 2°57.935 -999 55 16.5 100660 46
2011-07-06 07:56:02 51°23.535 2°57.953 -999 24 16.5 100660 46
2011-07-06 07:56:07 51°23.549 2°57.971 -999 43 16.5 100660 46
2011-07-06 07:56:13 51°23.565 2°57.992 -999 24 16.5 100660 46
2011-07-06 07:56:17 51°23.575 2°58.007 -999 42 16.5 100660 46
2011-07-06 07:56:22 51°23.589 2°58.024 -999 44 16.5 100650 44
2011-07-06 07:56:28 51°23.605 2°58.046 -999 38 16.5 100650 44
2011-07-06 07:56:32 51°23.617 2°58.058 -999 25 16.5 100650 46
2011-07-06 07:56:37 51°23.63 2°58.077 -999 55 16.5 100650 46
2011-07-06 07:56:42 51°23.644 2°58.094 -999 24 16.5 100660 46
2011-07-06 07:56:48 51°23.66 2°58.116 -999 27 16.5 100660 46
2011-07-06 07:56:53 51°23.674 2°58.134 1.4 44 16.5 100660 46
2011-07-06 07:56:57 51°23.685 2°58.148 0.3 55 16.5 100660 46
2011-07-06 07:57:02 51°23.698 2°58.166 0.2 24 16.6 100660 46
2011-07-06 07:57:08 51°23.715 2°58.188 0.2 57 16.6 100660 46
2011-07-06 07:57:13 51°23.728 2°58.207 0.1 25 16.6 100650 47
2011-07-06 07:57:17 51°23.738 2°58.223 -999 55 16.6 100650 47
2011-07-06 07:57:22 51°23.751 2°58.242 -999 25 16.6 100660 47
2011-07-06 07:57:27 51°23.764 2°58.262 -999 55 16.6 100660 47
2011-07-06 07:57:33 51°23.78 2°58.284 -999 24 16.6 100650 46
2011-07-06 07:57:37 51°23.79 2°58.299 -999 55 16.6 100650 46
2011-07-06 07:57:42 51°23.804 2°58.317 -999 24 16.6 100650 46
2011-07-06 07:57:48 51°23.82 2°58.34 -999 79 16.6 100650 46
2011-07-06 07:57:53 51°23.834 2°58.357 -999 24 16.6 100660 46
2011-07-06 07:57:57 51°23.844 2°58.373 -999 55 16.6 100660 46
2011-07-06 07:58:02 51°23.857 2°58.391 -999 25 16.6 100660 46
2011-07-06 07:58:08 51°23.872 2°58.414 -999 55 16.6 100660 46
2011-07-06 07:58:12 51°23.883 2°58.429 -999 24 16.6 100660 45
2011-07-06 07:58:17 51°23.896 2°58.448 -999 55 16.6 100660 45
2011-07-06 07:58:22 51°23.908 2°58.467 -999 24 16.6 100660 45
2011-07-06 07:58:27 51°23.921 2°58.486 -999 55 16.6 100660 45
2011-07-06 07:58:32 51°23.934 2°58.506 -999 24 16.5 100670 45
2011-07-06 07:58:37 51°23.947 2°58.525 -999 55 16.5 100670 45
2011-07-06 07:58:42 51°23.959 2°58.544 -999 25 16.5 100660 45
2011-07-06 07:58:48 51°23.975 2°58.566 -999 79 16.5 100660 45
2011-07-06 07:58:52 51°23.985 2°58.581 -999 25 16.6 100660 45
2011-07-06 07:58:57 51°23.998 2°58.599 -999 55 16.6 100660 45
2011-07-06 07:59:02 51°24.011 2°58.618 -999 24 16.6 100660 44
2011-07-06 07:59:07 51°24.024 2°58.636 -999 55 16.6 100660 44
2011-07-06 07:59:12 51°24.037 2°58.655 -999 25 16.6 100660 45
2011-07-06 07:59:17 51°24.05 2°58.673 -999 55 16.6 100660 45
2011-07-06 07:59:22 51°24.062 2°58.692 -999 24 16.6 100660 45
2011-07-06 07:59:28 51°24.078 2°58.714 -999 40 16.6 100660 45
2011-07-06 07:59:33 51°24.092 2°58.733 -999 44 16.6 100660 45
2011-07-06 07:59:37 51°24.103 2°58.746 -999 40 16.6 100660 45
2011-07-06 07:59:42 51°24.116 2°58.766 -999 25 16.6 100660 45
2011-07-06 07:59:47 51°24.129 2°58.783 -999 79 16.6 100660 45
2011-07-06 07:59:53 51°24.144 2°58.806 -999 25 16.6 100660 45
2011-07-06 07:59:57 51°24.155 2°58.82 -999 55 16.6 100660 45
2011-07-06 08:00:02 51°24.168 2°58.838 -999 24 16.7 100660 46
2011-07-06 08:00:07 51°24.182 2°58.856 -999 55 16.7 100660 46
2011-07-06 08:00:12 51°24.195 2°58.875 -999 25 16.7 100660 45
2011-07-06 08:00:17 51°24.208 2°58.893 -999 55 16.7 100660 45
2011-07-06 08:00:22 51°24.221 2°58.912 -999 24 16.7 100670 45
2011-07-06 08:00:28 51°24.237 2°58.934 -999 55 16.7 100670 45
2011-07-06 08:00:32 51°24.248 2°58.949 -999 24 16.7 100660 46
2011-07-06 08:00:37 51°24.262 2°58.965 -999 55 16.7 100660 46
2011-07-06 08:00:42 51°24.276 2°58.982 -999 25 16.7 100670 46
2011-07-06 08:00:48 51°24.293 2°59.001 -999 79 16.7 100670 46
2011-07-06 08:00:52 51°24.306 2°59.013 -999 25 16.7 100670 46
2011-07-06 08:00:57 51°24.321 2°59.028 -999 55 16.7 100670 46
2011-07-06 08:01:02 51°24.336 2°59.044 -999 25 16.8 100670 46
2011-07-06 08:01:07 51°24.351 2°59.058 -999 55 16.8 100670 46
2011-07-06 08:01:13 51°24.369 2°59.076 -999 25 16.8 100670 46
2011-07-06 08:01:17 51°24.382 2°59.087 -999 55 16.8 100670 46
2011-07-06 08:01:22 51°24.397 2°59.103 -999 24 16.9 100660 45
2011-07-06 08:01:27 51°24.413 2°59.117 -999 55 16.9 100660 45
2011-07-06 08:01:33 51°24.431 2°59.134 -999 25 16.9 100670 45
2011-07-06 08:01:37 51°24.444 2°59.145 -999 55 16.9 100670 45
2011-07-06 08:01:42 51°24.46 2°59.158 -999 24 16.8 100660 43
2011-07-06 08:01:48 51°24.478 2°59.175 -999 79 16.8 100660 43
2011-07-06 08:01:52 51°24.491 2°59.186 -999 24 16.8 100660 45
2011-07-06 08:01:57 51°24.506 2°59.201 -999 55 16.8 100660 45
2011-07-06 08:02:02 51°24.522 2°59.214 -999 25 16.9 100660 45
2011-07-06 08:02:07 51°24.537 2°59.229 -999 55 16.9 100660 45
2011-07-06 08:02:12 51°24.553 2°59.242 -999 24 16.8 100670 43
2011-07-06 08:02:17 51°24.57 2°59.255 -999 55 16.8 100670 43
2011-07-06 08:02:22 51°24.586 2°59.269 -999 24 16.8 100660 44
2011-07-06 08:02:28 51°24.605 2°59.284 -999 55 16.8 100660 44
2011-07-06 08:02:32 51°24.618 2°59.296 -999 24 16.8 100670 44
2011-07-06 08:02:37 51°24.634 2°59.309 -999 55 16.8 100670 44
2011-07-06 08:02:42 51°24.649 2°59.325 -999 25 16.8 100670 45
2011-07-06 08:02:48 51°24.668 2°59.34 -999 79 16.8 100670 45
2011-07-06 08:02:52 51°24.68 2°59.351 -999 24 16.8 100670 44
2011-07-06 08:02:57 51°24.695 2°59.366 -999 55 16.8 100670 44
2011-07-06 08:03:02 51°24.71 2°59.381 -999 25 16.7 100670 45
2011-07-06 08:03:07 51°24.726 2°59.394 -999 55 16.7 100670 45
2011-07-06 08:03:13 51°24.744 2°59.413 -999 25 16.7 100670 44
2011-07-06 08:03:17 51°24.757 2°59.423 -999 55 16.7 100670 44
2011-07-06 08:03:22 51°24.772 2°59.438 -999 24 16.7 100670 44
2011-07-06 08:03:28 51°24.791 2°59.456 -999 55 16.7 100670 44
2011-07-06 08:03:32 51°24.803 2°59.467 -999 25 16.6 100670 44
2011-07-06 08:03:37 51°24.819 2°59.48 -999 55 16.6 100670 44
2011-07-06 08:03:42 51°24.834 2°59.495 -999 24 16.6 100670 44
2011-07-06 08:03:47 51°24.85 2°59.509 -999 79 16.6 100670 44
2011-07-06 08:03:53 51°24.867 2°59.528 -999 24 16.6 100670 44
2011-07-06 08:03:57 51°24.879 2°59.541 -999 55 16.6 100670 44
2011-07-06 08:04:01 51°24.89 2°59.553 -999 25 16.6 100670 44
2011-07-06 08:04:07 51°24.908 2°59.572 -999 55 16.6 100670 44
2011-07-06 08:04:12 51°24.923 2°59.588 -999 24 16.6 100670 44
2011-07-06 08:04:17 51°24.938 2°59.604 -999 55 16.6 100670 44
2011-07-06 08:04:22 51°24.952 2°59.62 -999 25 16.5 100670 42
2011-07-06 08:04:27 51°24.968 2°59.634 -999 55 16.5 100670 42
2011-07-06 08:04:33 51°24.985 2°59.655 -999 25 16.5 100670 43
2011-07-06 08:04:37 51°24.998 2°59.667 -999 55 16.5 100670 43
2011-07-06 08:04:42 51°25.012 2°59.683 -999 24 16.4 100670 43
2011-07-06 08:04:47 51°25.027 2°59.7 -999 79 16.4 100670 43
2011-07-06 08:04:53 51°25.045 2°59.719 -999 25 16.4 100670 43
2011-07-06 08:04:57 51°25.057 2°59.733 -999 55 16.4 100670 43
2011-07-06 08:05:02 51°25.071 2°59.748 -999 25 16.4 100670 43
2011-07-06 08:05:08 51°25.089 2°59.768 -999 55 16.4 100670 43
2011-07-06 08:05:12 51°25.101 2°59.78 -999 25 16.5 100670 44
2011-07-06 08:05:17 51°25.117 2°59.795 -999 55 16.5 100670 44
2011-07-06 08:05:22 51°25.131 2°59.812 -999 25 16.5 100670 43
2011-07-06 08:05:28 51°25.149 2°59.831 -999 55 16.5 100670 43
2011-07-06 08:05:33 51°25.164 2°59.847 -999 25 16.5 100670 44
2011-07-06 08:05:37 51°25.175 2°59.859 -999 55 16.5 100670 44
2011-07-06 08:05:41 51°25.188 2°59.871 -999 24 16.6 100670 44
2011-07-06 08:05:48 51°25.207 2°59.894 -999 79 16.6 100670 44
2011-07-06 08:05:52 51°25.219 2°59.906 -999 25 16.6 100670 44
2011-07-06 08:05:57 51°25.234 2°59.921 -999 55 16.6 100670 44
2011-07-06 08:06:02 51°25.248 2°59.937 -999 25 16.6 100670 44
2011-07-06 08:06:07 51°25.263 2°59.954 -999 55 16.6 100670 44
2011-07-06 08:06:13 51°25.281 2°59.972 -999 25 16.6 100670 44
2011-07-06 08:06:17 51°25.293 2°59.984 -999 55 16.6 100670 44
2011-07-06 08:06:22 51°25.307 2°60 -999 25 16.6 100670 44
2011-07-06 08:06:28 51°25.325 3°0.019 -999 55 16.6 100670 44
2011-07-06 08:06:33 51°25.34 3°0.035 -999 25 16.6 100670 44
2011-07-06 08:06:37 51°25.352 3°0.047 -999 55 16.6 100670 44
2011-07-06 08:06:42 51°25.366 3°0.064 -999 25 16.7 100670 44
2011-07-06 08:06:47 51°25.382 3°0.079 -999 79 16.7 100670 44
2011-07-06 08:06:53 51°25.399 3°0.1 -999 25 16.7 100670 45
2011-07-06 08:06:57 51°25.411 3°0.11 -999 55 16.7 100670 45
2011-07-06 08:07:02 51°25.425 3°0.127 -999 24 16.7 100670 43
2011-07-06 08:07:08 51°25.443 3°0.145 -999 55 16.7 100670 43
2011-07-06 08:07:12 51°25.454 3°0.158 -999 24 16.7 100670 45
2011-07-06 08:07:17 51°25.469 3°0.176 -999 55 16.7 100670 45
2011-07-06 08:07:22 51°25.484 3°0.192 0.7 19 16.7 100670 45
2011-07-06 08:07:28 51°25.5 3°0.213 0.8 51 16.7 100670 45
2011-07-06 08:07:32 51°25.513 3°0.224 0.7 26 16.7 100670 45
2011-07-06 08:07:37 51°25.527 3°0.242 2 55 16.7 100670 45
2011-07-06 08:07:42 51°25.542 3°0.256 1.9 29 16.7 100670 46
2011-07-06 08:07:48 51°25.56 3°0.276 3.6 80 16.7 100670 46
2011-07-06 08:07:53 51°25.575 3°0.291 3.7 26 16.8 100670 45
2011-07-06 08:07:57 51°25.587 3°0.304 1.9 58 16.8 100670 45
2011-07-06 08:08:02 51°25.602 3°0.32 0.3 28 16.8 100670 46
2011-07-06 08:08:07 51°25.618 3°0.333 1.2 52 16.8 100670 46
2011-07-06 08:08:13 51°25.635 3°0.354 1.4 29 16.8 100670 46
2011-07-06 08:08:17 51°25.648 3°0.365 4.1 55 16.8 100670 46
2011-07-06 08:08:22 51°25.663 3°0.381 3.7 27 16.8 100670 45
2011-07-06 08:08:27 51°25.677 3°0.397 1.3 53 16.8 100670 45
2011-07-06 08:08:33 51°25.695 3°0.416 1.3 21 16.8 100670 44
2011-07-06 08:08:37 51°25.707 3°0.429 0.2 57 16.8 100670 44
2011-07-06 08:08:42 51°25.721 3°0.446 0.1 26 16.7 100670 44
2011-07-06 08:08:47 51°25.737 3°0.46 0.2 55 16.7 100670 44
2011-07-06 08:08:52 51°25.751 3°0.478 0.1 25 16.7 100670 45
2011-07-06 08:08:57 51°25.767 3°0.493 -999 55 16.7 100670 45
2011-07-06 08:09:02 51°25.782 3°0.511 -999 25 16.7 100680 46
2011-07-06 08:09:08 51°25.8 3°0.53 -999 55 16.7 100680 46
2011-07-06 08:09:12 51°25.812 3°0.543 -999 25 16.7 100670 45
2011-07-06 08:09:17 51°25.827 3°0.56 0.1 54 16.7 100670 45
2011-07-06 08:09:22 51°25.842 3°0.576 0.1 24 16.7 100670 44
2011-07-06 08:09:27 51°25.857 3°0.592 -999 55 16.7 100670 44
2011-07-06 08:09:33 51°25.875 3°0.611 -999 24 16.6 100670 44
2011-07-06 08:09:37 51°25.887 3°0.623 -999 58 16.6 100670 44
2011-07-06 08:09:42 51°25.902 3°0.639 0.1 22 16.6 100680 43
2011-07-06 08:09:48 51°25.92 3°0.658 0.1 79 16.6 100680 43
2011-07-06 08:09:53 51°25.935 3°0.674 0.1 27 16.6 100670 44
2011-07-06 08:09:57 51°25.946 3°0.687 -999 55 16.6 100670 44
2011-07-06 08:10:02 51°25.961 3°0.703 -999 25 16.6 100670 44
2011-07-06 08:10:08 51°25.977 3°0.723 -999 55 16.6 100670 44
2011-07-06 08:10:13 51°25.992 3°0.738 -999 25 16.6 100680 44
2011-07-06 08:10:17 51°26.004 3°0.75 0.2 58 16.6 100680 44
2011-07-06 08:10:22 51°26.018 3°0.767 0.1 26 16.7 100680 46
2011-07-06 08:10:28 51°26.037 3°0.785 0.3 57 16.7 100680 46
2011-07-06 08:10:33 51°26.051 3°0.8 0.1 25 16.7 100680 46
2011-07-06 08:10:37 51°26.064 3°0.812 0.1 55 16.7 100680 46
2011-07-06 08:10:42 51°26.079 3°0.827 0.1 19 16.7 100680 45
2011-07-06 08:10:47 51°26.094 3°0.842 0.4 75 16.7 100680 45
2011-07-06 08:10:52 51°26.11 3°0.857 3.5 20 16.8 100670 45
2011-07-06 08:10:57 51°26.125 3°0.87 0.3 59 16.8 100670 45
2011-07-06 08:11:02 51°26.14 3°0.885 0.1 26 16.8 100680 45
2011-07-06 08:11:08 51°26.159 3°0.901 0.1 50 16.8 100680 45
2011-07-06 08:11:12 51°26.171 3°0.914 0.1 27 16.8 100670 46
2011-07-06 08:11:17 51°26.185 3°0.93 0.1 55 16.8 100670 46
2011-07-06 08:11:22 51°26.2 3°0.945 0.1 25 16.8 100680 46
2011-07-06 08:11:27 51°26.215 3°0.962 -999 56 16.8 100680 46
2011-07-06 08:11:32 51°26.23 3°0.978 -999 24 16.8 100670 46
2011-07-06 08:11:37 51°26.244 3°0.995 0.1 55 16.8 100670 46
2011-07-06 08:11:42 51°26.259 3°1.011 0.1 25 16.8 100670 45
2011-07-06 08:11:47 51°26.274 3°1.026 -999 55 16.8 100670 45
2011-07-06 08:11:53 51°26.293 3°1.044 0.1 24 16.8 100670 46
2011-07-06 08:11:57 51°26.305 3°1.057 0.1 55 16.8 100670 46
2011-07-06 08:12:02 51°26.32 3°1.072 -999 24 16.8 100670 45
2011-07-06 08:12:07 51°26.335 3°1.088 -999 55 16.8 100670 45
2011-07-06 08:12:13 51°26.354 3°1.106 -999 24 16.8 100680 45
2011-07-06 08:12:17 51°26.365 3°1.119 -999 55 16.8 100680 45
2011-07-06 08:12:22 51°26.381 3°1.132 -999 24 16.9 100670 44
2011-07-06 08:12:27 51°26.395 3°1.151 -999 56 16.9 100670 44
2011-07-06 08:12:32 51°26.412 3°1.164 -999 24 17 100680 45
2011-07-06 08:12:37 51°26.426 3°1.183 -999 56 17 100680 45
2011-07-06 08:12:42 51°26.443 3°1.195 2.4 26 17 100670 45
2011-07-06 08:12:47 51°26.457 3°1.213 0.3 80 17 100670 45
2011-07-06 08:12:53 51°26.476 3°1.23 0.1 25 17.1 100670 44
2011-07-06 08:12:57 51°26.488 3°1.243 0.1 55 17.1 100670 44
2011-07-06 08:13:02 51°26.503 3°1.258 0.1 21 17.1 100670 44
2011-07-06 08:13:08 51°26.521 3°1.276 0.1 61 17.1 100670 44
2011-07-06 08:13:13 51°26.536 3°1.293 0.1 20 17.2 100670 43
2011-07-06 08:13:17 51°26.549 3°1.302 0.6 55 17.2 100670 43
2011-07-06 08:13:22 51°26.563 3°1.32 1.7 26 17.3 100670 44
2011-07-06 08:13:27 51°26.58 3°1.332 0.2 55 17.3 100670 44
2011-07-06 08:13:33 51°26.597 3°1.352 0.7 19 17.4 100670 45
2011-07-06 08:13:37 51°26.609 3°1.363 0.1 58 17.4 100670 45
2011-07-06 08:13:42 51°26.624 3°1.379 0.1 26 17.4 100670 44
2011-07-06 08:13:48 51°26.641 3°1.397 -999 79 17.4 100670 44
2011-07-06 08:13:53 51°26.655 3°1.414 0.1 27 17.4 100670 43
2011-07-06 08:13:57 51°26.667 3°1.427 2.5 50 17.4 100670 43
2011-07-06 08:14:02 51°26.682 3°1.443 2.8 21 17.4 100670 43
2011-07-06 08:14:07 51°26.697 3°1.458 2.8 51 17.4 100670 43
2011-07-06 08:14:13 51°26.714 3°1.477 3 27 17.4 100680 43
2011-07-06 08:14:17 51°26.727 3°1.488 3.5 57 17.4 100680 43
2011-07-06 08:14:22 51°26.741 3°1.504 4.2 21 17.4 100670 43
2011-07-06 08:14:28 51°26.759 3°1.522 1.6 58 17.4 100670 43
2011-07-06 08:14:32 51°26.77 3°1.534 0.2 26 17.4 100680 44
2011-07-06 08:14:37 51°26.786 3°1.547 0.1 55 17.4 100680 44
2011-07-06 08:14:42 51°26.8 3°1.564 -999 25 17.4 100670 43
2011-07-06 08:14:47 51°26.816 3°1.578 -999 55 17.4 100670 43
2011-07-06 08:14:52 51°26.83 3°1.594 -999 25 17.3 100680 42